Regional Weather Roundup
Issued by NWS Upton, NY

Current Version | Previous Version | Text Only | Print | Product List | Glossary Off
Versions: 1 2 3 4 5 6 7 8 9 10 11 12 13 14 15 16 17 18 19 20 21 22 23 24 25 26 27 28
000 ASUS41 KOKX 192108 RWROKX REGIONAL WEATHER ROUNDUP NATIONAL WEATHER SERVICE NEW YORK NY 400 PM EST THU JAN 19 2017 NOTE: "FAIR" INDICATES FEW OR NO CLOUDS BELOW 12,000 FEET WITH NO SIGNIFICANT WEATHER AND/OR OBSTRUCTIONS TO VISIBILITY. NYZ071-072-176-178-NJZ106-104-192200- NEW YORK CITY METRO AREA CITY SKY/WX TMP DP RH WIND PRES REMARKS Central Park CLOUDY 44 33 65 NW8 30.01F Wall St Helipt NOT AVBL Bronx Bot Gard NOT AVBL LaGuardia APRT MOCLDY 46 33 60 NW9 29.99S Kennedy INTL MOCLDY 47 32 56 NW14 30.00S Breezy Point N/A 43 N/A N/A NW8 N/A Newark/Liberty CLOUDY 45 34 65 NW10G16 30.00S Teterboro CLOUDY 45 34 65 NW6 29.99S $$ NYZ177-179-078>081-192200- LONG ISLAND NEW YORK CITY SKY/WX TMP DP RH WIND PRES REMARKS Jones Beach N/A 45 N/A N/A NW13 N/A Matinecock PT N/A 45 N/A N/A W12 N/A Farmingdale CLOUDY 47 35 63 NW10 29.98R MacArthur/ISP CLOUDY 46 36 68 NW9 29.97R Shirley CLOUDY 46 35 65 NW9 29.97S Westhampton MOCLDY 46 34 62 NW8 29.98R Southampton NOT AVBL Bridgehampton NOT AVBL East Hampton N/A 45 34 65 NW5 29.95S Montauk N/A 45 37 73 NW6 29.96R $$ NYZ052-065-067-192200- HUDSON VALLEY CITY SKY/WX TMP DP RH WIND PRES REMARKS White Plains MOCLDY 44 33 65 W5 29.97S Newburgh MOCLDY 45 36 70 VRB6 29.98S Montgomery CLOUDY 46 34 62 W8 29.95S Poughkeepsie MOCLDY 44 33 65 NW6 29.97S Albany CLOUDY 40 33 76 W15 29.99F WCI 32 $$ NJZ001-105-106-008-010-013-015-019>022-104-192200- NEW JERSEY CITY SKY/WX TMP DP RH WIND PRES REMARKS Newark/Liberty CLOUDY 45 34 65 NW10G16 30.00S Teterboro CLOUDY 45 34 65 NW6 29.99S Caldwell CLOUDY 44 34 67 NW9 30.00S Somerville CLOUDY 45 33 63 N5 29.98F Linden CLOUDY 45 34 65 NW8 30.00S Sussex CLOUDY 42 33 70 MISG 29.99F Andover N/A 41 33 73 CALM 29.99S Trenton CLOUDY 44 34 67 NW6 30.00F Millville CLOUDY 48 37 65 W12 30.01R Atlantic City CLOUDY 49 36 61 N8 29.99F Wrightstown CLOUDY 44 35 71 NW7 29.98S Toms River CLOUDY 46 36 68 W9 30.01R Belmar CLOUDY 46 36 68 W10 30.00S $$ PAZ047>061-062-071-192200- EASTERN PENNSYLVANIA CITY SKY/WX TMP DP RH WIND PRES REMARKS Philadelphia CLOUDY 47 34 60 N8 30.03R Allentown CLOUDY 45 33 63 NW5 30.01S Scranton CLOUDY 40 33 76 NW5 29.99S $$ CTZ002-004>006-009-010-012-RIZ004-006-007-MAZ004-011-015-192200- SOUTHERN NEW ENGLAND IN CT CITY SKY/WX TMP DP RH WIND PRES REMARKS Bradley INTL MOCLDY 43 32 65 NW6 29.97R Hartford CLOUDY 44 32 62 N9 29.97R Danbury CLOUDY 44 33 65 W3 29.97S Wtrbury/Oxford MOCLDY 43 30 61 NW9 29.96F Bridgeport CLOUDY 48 34 58 NW7 29.97S Meriden CLOUDY 48 31 51 NW13 29.96S New Haven MOCLDY 46 33 60 NW7 29.96S Chester N/A 46 32 57 NW9 29.94F Groton PTCLDY 47 33 58 N8 29.94S Wilimantic CLOUDY 46 33 60 NW7 29.96S IN RI CITY SKY/WX TMP DP RH WIND PRES REMARKS Providence MOCLDY 45 33 63 N10 29.95R Block Island NOT AVBL Westerly CLOUDY 47 32 56 NW3 29.95S IN MA CITY SKY/WX TMP DP RH WIND PRES REMARKS Boston MOCLDY 43 33 68 NW7 29.96R Worcester CLOUDY 38 30 73 W6 29.93R WCI 33 Westfield CLOUDY 42 33 70 W8 29.96R Provincetown MOCLDY 43 36 76 N10 29.95R Nantucket CLEAR 42 34 73 NW10 29.94R $$ ANZ330-335-338-340-345-350-353-355-192200- COASTAL MARINE OBSERVATIONS STATION/POSITION TIME SKY/WX TEMP WIND PRES VSBY WAVE AIR SEA DIR/SP/G HT/PER (UTC) (F) (DEG/KT/KT) (MB) (MI) (FT/S) NY HARB ENTRANCE 1950 46 45 290/ 12/ 16 1015.4 4/10 20 S FIRE ISLAND 1950 45 46 280/ 8/ 12 1015.1 5/11 GREAT SOUTH BAY NOT AVBL 23 SSW MONTAUK P 1950 45 48 300/ 12/ 16 1014.8 5/10 15 E BARNEGAT LI 2030 48 N/A 5/11 HUDSON CANYON 1950 46 51 1015.1 8/11 KINGS POINT 2042 43 39 1015.2 EXECUTION ROCKS 2045 44 290/ 8/ 12 N/A CENTRAL LI SOUND 2030 44 270/ 6/ 8 N/A 1 EASTERN LI SOUND NOT AVBL ROBBINS REEF 2042 44 330/ 9/ 12 1015.8 $$ >>>>>>>>>>>>>>>>>>>>>>>>>>>> KEY <<<<<<<<<<<<<<<<<<<<<<<<<<< > < > SKY/WX - Sky Condition/Present Weather < > TMP - Temperature in Fahrenheit < > DP - Dew Point in Fahrenheit < > RH - Relative Humidity in Percent < > WIND - Direction (from) and Speed in MPH < > PRES - Mean Sea Level Pressure (inches of Hg) < > WCI - Wind Chill Index < > VSB - VISIBILITY IN MILES < > HX - HEAT INDEX < > TC - TEMPERATURE IN CELSIUS < > VRB - VARIABLE WIND DIRECTION < > < >>>>>>>>>>>>>>>>>>>>>>>>>>>> KEY <<<<<<<<<<<<<<<<<<<<<<<<<<<

USA.gov is the U.S. government's official web portal to all federal, state and local government web resources and services.